Location: B�rgermoos
(47.6500°N, 9.0667°E)
Time: 07:55:10
(UTC+00:00)

A-11 Canister half - Pass Details

Date: 04 August 2021
Orbit: 1526 x 1683 km, 47.3° (Epoch: 20 September)

Event Time Altitude Azimuth Distance (km) Brightness Sun altitude
Rises 17:22:10 0° 290° (WNW) 4,881 13.5 13.8°
Reaches altitude 10° 17:26:12 10° 277° (W) 3,867 14.3 13.1°
Maximum altitude 17:33:09 22° 231° (SW) 2,950 11.2 12.0°
Drops below altitude 10° 17:39:58 10° 185° (S) 3,764 11.0 10.8°
Sets 17:43:52 0° 171° (S) 4,720 11.3 10.2°
